sat.trackr.live / text

‹ back to catalog

STARLINK-5265

NORAD 55317 · 2023-010BA

PAYLOAD ACTIVE UNKNOWN

§ Identity

Operator
Country
US
Launch date
2023-01-19
Launch site
AFWTR
Launch vehicle
Mass (kg)
RCS (m²)

Purposes: comms

External: N2YO · Heavens-Above · Gunter

§ Orbital elements

Epoch: 2026-05-25T03:22:04.927584Z

Period
96.11 min
Inclination
69.9987°
Eccentricity
0.0003850
Mean motion
14.98324978 rev/d
Perigee alt
569.4 km
Apogee alt
574.7 km
Semi-major
6,950.2 km
B*
5.8193e-5
RAAN
171.7309°
Arg perigee
266.9060°
Mean anomaly
93.1659°
Rev number
18,609

§ Raw data

STARLINK-52651 55317U 23010BA  26145.14033481  .00000601  00000+0  58193-4 0  99952 55317  69.9987 171.7309 0003850 266.9060  93.1659 14.98324978186096

JSON: /api/v1/satellites/55317 · /tle

For live sub-satellite position, see the globe view (requires WebGL).

§ Visibility from observer

Set your observer location to see the next 7 days of passes ≥ 10°. The values pass through the URL so the page stays shareable.

No JS? Fill the form by hand. The geolocation button needs JavaScript.